Location: Leesdale
(34.1967°N, 119.0998°W)
Time: 05:04:25
(UTC+00:00)

Cosmos 2100 Rocket - Pass Details

Date: 05 August 2025
Orbit: 954 x 1000 km, 82.9° (Epoch: 15 December)

Event Time Altitude Azimuth Distance (km) Brightness Sun altitude
Rises 12:04:10 0° 183° (S) 3,615 6.7 -13.2°
Reaches altitude 10° 12:06:39 10° 182° (S) 2,672 6.0 -12.7°
Maximum altitude 12:12:45 85° 96° (E) 963 4.0 -11.7°
Drops below altitude 10° 12:18:56 10° 7° (N) 2,698 6.8 -10.5°
Sets 12:21:27 0° 7° (N) 3,653 7.6 -10.1°
